This is the latest recevied weather packets stored in our database for station/object DC1NF-6. If no packets are shown the sender has not sent any weather packets the latest 10 day(s).
| Time | Temp. | Humidity | Pressure | Rain* | Wind** | Luminosity | Snow |
|---|---|---|---|---|---|---|---|
| 1777288250 | 19.44° C | 26% | 1021.4 hPa | 0 mm | - | - | - |
| 1777287647 | 20.56° C | 26% | 1021.5 hPa | 0 mm | - | - | - |
| 1777287044 | 20° C | 24% | 1021.5 hPa | 0 mm | - | - | - |
| 1777286440 | 20° C | 25% | 1021.5 hPa | 0 mm | - | - | - |
| 1777285837 | 20° C | 28% | 1021.7 hPa | 0 mm | - | - | - |
| 1777285233 | 20° C | 28% | 1021.8 hPa | 0 mm | - | - | - |
| 1777284630 | 19.44° C | 30% | 1021.8 hPa | 0 mm | - | - | - |
| 1777284027 | 18.89° C | 32% | 1021.8 hPa | 0 mm | - | - | - |
| 1777283423 | 18.33° C | 32% | 1021.9 hPa | 0 mm | - | - | - |
| 1777282820 | 18.33° C | 33% | 1022 hPa | 0 mm | - | - | - |
| 1777282217 | 18.33° C | 35% | 1022.2 hPa | 0 mm | - | - | - |
| 1777281674 | 17.22° C | 35% | 1022.3 hPa | 0 mm | - | - | - |
| 1777281071 | 17.22° C | 35% | 1022.4 hPa | 0 mm | - | - | - |
| 1777280467 | 17.22° C | 34% | 1022.4 hPa | 0 mm | - | - | - |
| 1777279864 | 16.11° C | 35% | 1022.4 hPa | 0 mm | - | - | - |
| 1777279261 | 16.67° C | 35% | 1022.4 hPa | 0 mm | - | - | - |
| 1777278658 | 15.56° C | 38% | 1022.4 hPa | 0 mm | - | - | - |
| 1777278054 | 15° C | 38% | 1022.5 hPa | 0 mm | - | - | - |
| 1777277451 | 15.56° C | 42% | 1022.5 hPa | 0 mm | - | - | - |
| 1777276847 | 15° C | 44% | 1022.4 hPa | 0 mm | - | - | - |
| 1777276244 | 14.44° C | 45% | 1022.5 hPa | 0 mm | - | - | - |
| 1777275641 | 14.44° C | 45% | 1022.6 hPa | 0 mm | - | - | - |
| 1777275037 | 13.33° C | 47% | 1022.5 hPa | 0 mm | - | - | - |
| 1777274434 | 12.78° C | 48% | 1022.6 hPa | 0 mm | - | - | - |
| 1777273831 | 12.78° C | 50% | 1022.6 hPa | 0 mm | - | - | - |
* Rain latest hour (hover to see other rain measurements)
** Current wind speed in m/s (hover to see current wind gust speed)